sat.trackr.live / text

‹ back to catalog

STARLINK-37342

NORAD 68752 · 2026-082AA

PAYLOAD ACTIVE UNKNOWN

§ Identity

Operator
Country
US
Launch date
2026-04-15
Launch site
AFWTR
Launch vehicle
Mass (kg)
RCS (m²)

Purposes: comms

External: N2YO · Heavens-Above · Gunter

§ Orbital elements

Epoch: 2026-05-25T04:00:03.998880Z

Period
92.46 min
Inclination
97.2852°
Eccentricity
0.0001961
Mean motion
15.57367338 rev/d
Perigee alt
394.0 km
Apogee alt
396.6 km
Semi-major
6,773.4 km
B*
-2.9518e-2
RAAN
8.8358°
Arg perigee
99.1986°
Mean anomaly
124.7476°
Rev number
600

§ Raw data

STARLINK-373421 68752U 26082AA  26145.16671295 -.01905710  00000+0 -29518-1 0  99912 68752  97.2852   8.8358 0001961  99.1986 124.7476 15.57367338  6009

JSON: /api/v1/satellites/68752 · /tle

For live sub-satellite position, see the globe view (requires WebGL).

§ Visibility from observer

Set your observer location to see the next 7 days of passes ≥ 10°. The values pass through the URL so the page stays shareable.

No JS? Fill the form by hand. The geolocation button needs JavaScript.